contact:dominique.lefevre@mio.osupytheas.fr, maurice.libes@osupytheas.fr, didier.mallarino@osupytheas.fr
Project:EMSO http://www.emso-fr.org/EMSO-France
Depth: 2436.0 m
Title:EMSO Ligure Ouest : Data MII capteur AQUADOPP
Date,Latitude,Longitude,X_East,Y_North,Z_Up,Amplitude_X,Amplitude_Y,Amplitude_Z,Batterie,SoundSpeed,Heading,Pitch,Roll,Pressure,TIS,Speed,Direction
, degrees North, degrees East, m.s-1, m.s-1,m.s-1, 1, 1, 1, Volt, m.s-1, degree, degree, degree, dbar, degree_C, m.s-1, degree
2022-04-28T00:04:03,42.805,6.029,0.047,-0.022,0.014,101.0,101.0,100.0,13.4,1505.2,323.4,-0.8,1.8,2470.728,13.28,0.051,115.1
2022-04-28T00:07:03,42.805,6.029,0.035,-0.015,0.014,100.0,103.0,101.0,13.3,1505.2,331.6,-0.8,1.8,2470.715,13.28,0.038,113.2
2022-04-28T00:10:03,42.805,6.029,0.021,-0.02,0.01,99.0,103.0,102.0,13.3,1505.2,324.8,-0.8,1.8,2470.739,13.28,0.028,133.6
2022-04-28T00:13:03,42.805,6.029,0.008,-0.03,0.0,102.0,101.0,101.0,13.3,1505.2,331.1,-0.8,1.8,2470.737,13.28,0.031,165.1
2022-04-28T00:16:03,42.805,6.029,0.0,-0.027,-0.003,100.0,102.0,101.0,13.4,1505.2,325.1,-0.8,1.8,2470.703,13.28,0.026,180.0
2022-04-28T00:19:03,42.805,6.029,0.007,0.002,0.014,101.0,102.0,101.0,13.4,1505.2,322.4,-0.8,1.8,2470.708,13.28,0.007,74.1
2022-04-28T00:22:03,42.805,6.029,0.056,-0.006,0.019,103.0,101.0,100.0,13.4,1505.2,328.7,-0.7,1.8,2470.716,13.28,0.056,96.1
2022-04-28T00:25:03,42.805,6.029,0.001,-0.021,-0.025,100.0,103.0,100.0,13.4,1505.2,324.7,-0.8,1.8,2470.757,13.28,0.021,177.3
2022-04-28T00:28:03,42.805,6.029,0.053,-0.015,-0.006,101.0,101.0,100.0,13.4,1505.2,325.8,-0.8,1.8,2470.728,13.28,0.055,105.8
2022-04-28T00:31:03,42.805,6.029,0.022,-0.011,-0.008,100.0,102.0,101.0,13.4,1505.2,326.0,-0.7,1.8,2470.733,13.28,0.024,116.6
2022-04-28T00:34:03,42.805,6.029,0.013,-0.004,-0.037,101.0,101.0,100.0,13.3,1505.2,325.8,-0.8,1.8,2470.626,13.28,0.013,107.1
2022-04-28T00:37:03,42.805,6.029,0.006,-0.007,-0.006,103.0,100.0,100.0,13.3,1505.2,326.1,-0.8,1.8,2470.591,13.28,0.009,139.4
2022-04-28T00:40:03,42.805,6.029,0.021,-0.008,0.027,99.0,101.0,101.0,13.4,1505.2,325.5,-0.7,1.8,2470.618,13.28,0.022,110.9
2022-04-28T00:43:03,42.805,6.029,0.043,-0.027,0.002,101.0,101.0,100.0,13.4,1505.2,330.0,-0.7,1.8,2470.603,13.28,0.05,122.1
2022-04-28T00:46:03,42.805,6.029,0.016,0.0,0.005,101.0,102.0,101.0,13.3,1505.2,321.0,-0.8,1.8,2470.627,13.28,0.016,90.0
2022-04-28T00:49:03,42.805,6.029,0.03,-0.018,0.009,102.0,102.0,101.0,13.3,1505.2,326.7,-0.8,1.8,2470.626,13.28,0.034,121.0
2022-04-28T00:52:03,42.805,6.029,0.015,-0.006,0.017,101.0,102.0,100.0,13.3,1505.2,331.1,-0.7,1.8,2470.592,13.28,0.016,111.8
2022-04-28T00:55:03,42.805,6.029,0.027,-0.043,0.015,101.0,103.0,101.0,13.3,1505.2,332.1,-0.7,1.8,2470.583,13.28,0.05,147.9
2022-04-28T00:58:03,42.805,6.029,0.012,0.006,-0.002,102.0,103.0,99.0,13.4,1505.2,328.2,-0.8,1.8,2470.574,13.28,0.013,63.4
2022-04-28T01:04:03,42.805,6.029,0.02,-0.017,-0.036,103.0,103.0,103.0,13.4,1505.2,330.1,-0.7,1.8,2470.52,13.28,0.026,130.4
2022-04-28T01:07:03,42.805,6.029,0.032,-0.02,-0.017,101.0,101.0,102.0,13.3,1505.2,325.7,-0.8,1.8,2470.554,13.28,0.037,122.0
2022-04-28T01:10:03,42.805,6.029,0.022,-0.023,-0.038,101.0,100.0,102.0,13.3,1505.2,329.5,-0.8,1.8,2470.539,13.28,0.031,136.3
2022-04-28T01:13:03,42.805,6.029,0.014,-0.019,-0.027,102.0,103.0,99.0,13.3,1505.2,328.6,-0.8,1.8,2470.555,13.28,0.023,143.6
2022-04-28T01:16:03,42.805,6.029,0.023,-0.018,0.003,102.0,101.0,100.0,13.3,1505.2,324.0,-0.8,1.8,2470.562,13.28,0.029,128.0
2022-04-28T01:19:03,42.805,6.029,0.019,-0.003,-0.019,101.0,101.0,100.0,13.4,1505.2,323.3,-0.7,1.8,2470.596,13.28,0.019,99.0
2022-04-28T01:22:03,42.805,6.029,0.021,-0.035,-0.019,102.0,102.0,100.0,13.3,1505.2,332.5,-0.7,1.8,2470.612,13.28,0.04,149.0
2022-04-28T01:25:03,42.805,6.029,0.03,-0.019,0.033,102.0,101.0,100.0,13.4,1505.2,328.7,-0.8,1.9,2470.591,13.28,0.035,122.3
2022-04-28T01:28:03,42.805,6.029,0.018,-0.009,-0.012,101.0,102.0,100.0,13.4,1505.2,326.9,-0.8,1.8,2470.63,13.28,0.02,116.6
2022-04-28T01:31:03,42.805,6.029,0.025,-0.001,0.012,103.0,102.0,100.0,13.3,1505.2,326.0,-0.8,1.8,2470.609,13.28,0.025,92.3
2022-04-28T01:34:03,42.805,6.029,0.023,-0.041,-0.016,102.0,100.0,101.0,13.4,1505.2,331.0,-0.8,1.8,2470.669,13.28,0.047,150.7
2022-04-28T01:37:03,42.805,6.029,0.026,-0.031,0.011,101.0,102.0,101.0,13.4,1505.2,324.1,-0.7,1.8,2470.659,13.28,0.04,140.0
2022-04-28T01:40:03,42.805,6.029,0.003,-0.016,0.007,102.0,100.0,100.0,13.4,1505.2,326.4,-0.7,1.9,2470.651,13.28,0.016,169.4
2022-04-28T01:43:03,42.805,6.029,0.02,-0.015,0.023,102.0,103.0,100.0,13.4,1505.2,331.6,-0.8,1.8,2470.698,13.28,0.025,126.9
2022-04-28T01:46:03,42.805,6.029,0.03,-0.014,-0.008,101.0,101.0,101.0,13.3,1505.2,330.5,-0.8,1.8,2470.723,13.28,0.033,115.0
2022-04-28T01:49:03,42.805,6.029,0.023,0.001,0.021,102.0,102.0,100.0,13.3,1505.2,326.3,-0.8,1.8,2470.707,13.28,0.023,87.5
2022-04-28T01:52:03,42.805,6.029,0.012,-0.011,0.014,101.0,103.0,100.0,13.4,1505.2,328.1,-0.7,1.8,2470.707,13.28,0.016,132.5
2022-04-28T01:55:03,42.805,6.029,0.051,-0.018,0.001,103.0,101.0,100.0,13.4,1505.2,326.6,-0.8,1.8,2470.718,13.28,0.054,109.4
2022-04-28T01:58:03,42.805,6.029,0.026,-0.025,-0.021,101.0,103.0,100.0,13.4,1505.2,322.5,-0.8,1.8,2470.687,13.28,0.036,133.9
2022-04-28T02:04:03,42.805,6.029,0.005,0.001,-0.001,103.0,102.0,101.0,13.4,1505.2,325.4,-0.8,1.8,2470.763,13.28,0.005,78.7
2022-04-28T02:07:03,42.805,6.029,0.018,-0.011,-0.031,99.0,101.0,101.0,13.4,1505.2,327.6,-0.8,1.8,2470.836,13.28,0.021,121.4
2022-04-28T02:10:03,42.805,6.029,0.024,-0.005,0.007,101.0,103.0,100.0,13.4,1505.2,326.8,-0.7,1.8,2470.764,13.28,0.024,101.8
2022-04-28T02:13:03,42.805,6.029,0.036,-0.016,-0.031,101.0,103.0,101.0,13.3,1505.2,329.1,-0.8,1.8,2470.779,13.28,0.039,114.0
2022-04-28T02:16:03,42.805,6.029,0.038,-0.021,-0.008,100.0,101.0,100.0,13.4,1505.2,325.0,-0.8,1.8,2470.779,13.28,0.043,118.9
2022-04-28T02:19:03,42.805,6.029,0.038,-0.032,0.007,102.0,101.0,100.0,13.4,1505.2,326.5,-0.7,1.9,2470.8,13.28,0.049,130.1
2022-04-28T02:22:03,42.805,6.029,0.02,-0.023,-0.012,101.0,103.0,100.0,13.4,1505.2,328.3,-0.7,1.8,2470.784,13.28,0.03,139.0
2022-04-28T02:25:03,42.805,6.029,0.003,0.021,0.029,101.0,103.0,102.0,13.4,1505.2,328.6,-0.8,1.8,2470.843,13.28,0.021,8.1
2022-04-28T02:28:03,42.805,6.029,-0.004,-0.003,0.0,102.0,100.0,102.0,13.3,1505.2,331.6,-0.8,1.8,2470.755,13.28,0.005,233.1
2022-04-28T02:31:03,42.805,6.029,0.035,-0.025,0.011,102.0,102.0,100.0,13.4,1505.2,323.0,-0.8,1.8,2470.838,13.28,0.043,125.5
2022-04-28T02:34:03,42.805,6.029,0.024,-0.027,0.004,102.0,102.0,100.0,13.4,1505.2,327.7,-0.8,1.8,2470.837,13.28,0.036,138.4
2022-04-28T02:37:03,42.805,6.029,0.032,-0.016,0.017,102.0,102.0,100.0,13.4,1505.2,326.2,-0.7,1.9,2470.794,13.28,0.035,116.6
2022-04-28T02:40:03,42.805,6.029,-0.002,-0.02,0.018,101.0,101.0,101.0,13.3,1505.2,329.1,-0.8,1.8,2470.812,13.28,0.02,185.7
2022-04-28T02:43:03,42.805,6.029,0.035,-0.03,0.002,102.0,102.0,99.0,13.4,1505.2,329.0,-0.8,1.8,2470.836,13.28,0.046,130.6
2022-04-28T02:46:03,42.805,6.029,0.02,-0.009,0.031,102.0,101.0,99.0,13.4,1505.2,329.6,-0.7,1.8,2470.82,13.28,0.021,114.2
2022-04-28T02:49:03,42.805,6.029,0.014,0.002,-0.006,103.0,102.0,100.0,13.3,1505.2,323.1,-0.7,1.8,2470.832,13.28,0.014,81.9
2022-04-28T02:52:03,42.805,6.029,0.019,-0.019,0.015,103.0,100.0,100.0,13.4,1505.2,324.3,-0.7,1.8,2470.837,13.28,0.026,135.0
2022-04-28T02:55:03,42.805,6.029,-0.005,-0.019,-0.005,102.0,103.0,101.0,13.4,1505.2,322.5,-0.8,1.9,2470.82,13.28,0.019,194.7
2022-04-28T02:58:03,42.805,6.029,0.005,-0.013,0.0,101.0,102.0,100.0,13.4,1505.2,332.2,-0.8,1.8,2470.831,13.28,0.013,159.0
2022-04-28T03:04:03,42.805,6.029,0.008,0.01,0.02,102.0,102.0,100.0,13.4,1505.2,323.9,-0.8,1.8,2470.838,13.28,0.012,38.7
2022-04-28T03:07:03,42.805,6.029,0.02,-0.018,0.016,101.0,101.0,101.0,13.4,1505.2,324.5,-0.7,1.9,2470.843,13.28,0.026,132.0
2022-04-28T03:10:03,42.805,6.029,0.025,-0.004,0.019,102.0,102.0,100.0,13.4,1505.2,325.1,-0.8,1.8,2470.834,13.28,0.025,99.1
2022-04-28T03:13:03,42.805,6.029,0.022,-0.015,0.011,101.0,101.0,101.0,13.4,1505.2,326.1,-0.8,1.8,2470.825,13.28,0.026,124.3
2022-04-28T03:16:03,42.805,6.029,0.05,-0.009,0.008,101.0,103.0,100.0,13.4,1505.2,330.9,-0.7,1.9,2470.834,13.28,0.05,100.2
2022-04-28T03:19:03,42.805,6.029,0.039,-0.02,0.012,100.0,102.0,101.0,13.4,1505.2,330.3,-0.8,1.8,2470.821,13.28,0.043,117.1
2022-04-28T03:22:03,42.805,6.029,0.023,-0.004,0.024,101.0,102.0,100.0,13.3,1505.2,328.6,-0.8,1.8,2470.847,13.28,0.023,99.9
2022-04-28T03:25:03,42.805,6.029,0.007,-0.025,0.003,101.0,102.0,101.0,13.4,1505.2,328.2,-0.8,1.9,2470.823,13.28,0.025,164.4
2022-04-28T03:28:03,42.805,6.029,0.008,-0.015,-0.021,102.0,102.0,100.0,13.4,1505.2,322.8,-0.7,1.8,2470.85,13.28,0.017,151.9
2022-04-28T03:31:03,42.805,6.029,0.003,-0.008,0.006,101.0,102.0,100.0,13.4,1505.2,331.5,-0.7,1.8,2470.865,13.28,0.008,159.4
2022-04-28T03:34:03,42.805,6.029,0.023,-0.012,-0.014,102.0,102.0,100.0,13.4,1505.2,321.9,-0.8,1.8,2470.869,13.28,0.025,117.6
2022-04-28T03:37:03,42.805,6.029,0.042,-0.007,0.013,102.0,100.0,100.0,13.4,1505.2,331.0,-0.8,1.8,2470.865,13.28,0.042,99.5
2022-04-28T03:40:03,42.805,6.029,0.041,-0.027,0.028,101.0,103.0,101.0,13.4,1505.2,323.3,-0.8,1.9,2470.867,13.28,0.049,123.4
2022-04-28T03:43:03,42.805,6.029,0.008,-0.01,-0.013,101.0,101.0,100.0,13.4,1505.2,322.5,-0.8,1.8,2470.862,13.28,0.012,141.3
2022-04-28T03:46:03,42.805,6.029,0.023,-0.013,0.029,101.0,103.0,100.0,13.3,1505.2,331.0,-0.7,1.8,2470.904,13.28,0.026,119.5
2022-04-28T03:49:03,42.805,6.029,0.0,0.031,0.03,101.0,103.0,100.0,13.4,1505.2,326.7,-0.8,1.8,2470.889,13.28,0.03,0.0
2022-04-28T03:52:03,42.805,6.029,0.014,-0.009,0.036,102.0,101.0,100.0,13.3,1505.2,324.4,-0.7,1.8,2470.888,13.28,0.016,122.7
2022-04-28T03:55:03,42.805,6.029,-0.022,0.001,-0.017,102.0,102.0,99.0,13.4,1505.2,329.6,-0.7,1.8,2470.885,13.28,0.022,272.6
2022-04-28T03:58:03,42.805,6.029,0.01,-0.022,0.021,102.0,103.0,100.0,13.4,1505.2,329.5,-0.7,1.8,2470.912,13.28,0.024,155.6
2022-04-28T04:04:03,42.805,6.029,0.035,0.0,0.032,101.0,102.0,100.0,13.3,1505.2,325.3,-0.7,1.8,2470.939,13.28,0.035,90.0
2022-04-28T04:07:03,42.805,6.029,0.006,-0.012,0.012,101.0,102.0,100.0,13.4,1505.2,329.1,-0.7,1.8,2470.894,13.28,0.013,153.4
2022-04-28T04:10:03,42.805,6.029,0.027,0.001,0.018,101.0,102.0,101.0,13.4,1505.2,326.9,-0.8,1.8,2470.868,13.28,0.027,87.9
2022-04-28T04:13:03,42.805,6.029,-0.007,-0.001,-0.012,102.0,101.0,99.0,13.4,1505.2,323.9,-0.8,1.9,2470.872,13.28,0.007,261.9
2022-04-28T04:16:03,42.805,6.029,0.012,-0.007,0.022,102.0,102.0,100.0,13.4,1505.2,325.7,-0.7,1.8,2470.859,13.28,0.013,120.3
2022-04-28T04:19:03,42.805,6.029,0.022,0.016,0.03,102.0,101.0,100.0,13.4,1505.2,327.7,-0.8,1.8,2470.803,13.28,0.027,54.0
2022-04-28T04:22:03,42.805,6.029,0.002,-0.008,-0.048,100.0,102.0,100.0,13.4,1505.2,327.3,-0.8,1.8,2470.86,13.28,0.008,166.0
2022-04-28T04:25:03,42.805,6.029,0.025,-0.02,0.008,101.0,101.0,100.0,13.4,1505.2,328.1,-0.8,1.8,2470.832,13.28,0.032,128.7
2022-04-28T04:28:03,42.805,6.029,0.025,0.0,0.026,103.0,103.0,101.0,13.4,1505.2,325.6,-0.7,1.8,2470.887,13.28,0.025,90.0
2022-04-28T04:31:03,42.805,6.029,0.028,-0.025,0.014,101.0,102.0,101.0,13.4,1505.2,329.6,-0.8,1.8,2470.888,13.28,0.037,131.8
2022-04-28T04:34:03,42.805,6.029,0.041,-0.011,0.03,103.0,103.0,100.0,13.4,1505.2,322.5,-0.8,1.8,2470.888,13.28,0.042,105.0
2022-04-28T04:37:03,42.805,6.029,0.024,-0.008,-0.006,101.0,102.0,100.0,13.4,1505.2,324.7,-0.7,1.8,2470.887,13.28,0.025,108.4
2022-04-28T04:40:03,42.805,6.029,0.022,-0.041,0.008,101.0,102.0,99.0,13.4,1505.2,325.2,-0.8,1.8,2470.915,13.28,0.046,151.8
2022-04-28T04:43:03,42.805,6.029,0.033,0.001,0.045,102.0,101.0,100.0,13.3,1505.2,327.4,-0.7,1.8,2470.892,13.28,0.033,88.3
2022-04-28T04:46:03,42.805,6.029,0.028,-0.004,-0.007,101.0,101.0,101.0,13.4,1505.2,321.8,-0.7,1.8,2470.932,13.28,0.028,98.1
2022-04-28T04:49:03,42.805,6.029,0.04,0.006,0.025,101.0,101.0,101.0,13.3,1505.2,328.8,-0.7,1.8,2470.927,13.28,0.04,81.5
2022-04-28T04:52:03,42.805,6.029,0.017,-0.003,0.02,101.0,102.0,101.0,13.4,1505.2,328.0,-0.8,1.8,2470.925,13.28,0.017,100.0
2022-04-28T04:55:03,42.805,6.029,0.027,0.01,0.017,103.0,103.0,100.0,13.3,1505.2,329.5,-0.8,1.8,2470.933,13.28,0.028,69.7
2022-04-28T04:58:03,42.805,6.029,0.031,-0.004,0.028,102.0,102.0,99.0,13.4,1505.2,325.0,-0.8,1.7,2470.955,13.28,0.031,97.3
2022-04-28T05:04:03,42.805,6.029,0.035,-0.016,0.008,102.0,102.0,100.0,13.3,1505.2,326.6,-0.8,1.8,2470.936,13.28,0.038,114.6
2022-04-28T05:07:03,42.805,6.029,0.015,-0.009,0.014,104.0,103.0,99.0,13.4,1505.2,331.9,-0.8,1.8,2470.905,13.28,0.017,121.0
2022-04-28T05:10:03,42.805,6.029,0.021,-0.009,0.025,101.0,102.0,101.0,13.4,1505.2,324.7,-0.8,1.8,2470.86,13.28,0.022,113.2
2022-04-28T05:13:03,42.805,6.029,0.02,0.008,0.021,101.0,104.0,100.0,13.3,1505.2,327.0,-0.7,1.8,2470.903,13.28,0.021,68.2
2022-04-28T05:16:03,42.805,6.029,0.002,-0.004,0.013,102.0,104.0,100.0,13.4,1505.2,331.5,-0.8,1.8,2470.881,13.28,0.004,153.4
2022-04-28T05:19:03,42.805,6.029,0.027,0.003,0.0,102.0,103.0,101.0,13.3,1505.2,329.0,-0.8,1.8,2470.903,13.28,0.027,83.7
2022-04-28T05:22:03,42.805,6.029,0.019,0.005,0.021,103.0,102.0,100.0,13.4,1505.2,332.4,-0.8,1.8,2470.846,13.28,0.019,75.3
2022-04-28T05:25:03,42.805,6.029,0.011,0.003,0.031,102.0,103.0,101.0,13.4,1505.2,324.7,-0.8,1.8,2470.89,13.28,0.011,74.7
2022-04-28T05:28:03,42.805,6.029,-0.009,0.001,-0.012,101.0,103.0,101.0,13.4,1505.2,321.0,-0.7,1.8,2470.896,13.28,0.009,276.3
2022-04-28T05:31:03,42.805,6.029,0.017,-0.003,0.014,101.0,103.0,102.0,13.4,1505.2,325.3,-0.8,1.8,2470.879,13.28,0.017,100.0
2022-04-28T05:34:03,42.805,6.029,0.026,-0.024,-0.029,102.0,102.0,100.0,13.3,1505.2,332.3,-0.8,1.8,2470.878,13.28,0.035,132.7
2022-04-28T05:37:03,42.805,6.029,0.032,-0.006,0.015,102.0,102.0,100.0,13.4,1505.2,328.8,-0.7,1.8,2470.882,13.28,0.032,100.6
2022-04-28T05:40:03,42.805,6.029,-0.004,0.0,-0.005,102.0,102.0,100.0,13.4,1505.2,329.4,-0.8,1.8,2470.883,13.28,0.004,270.0
2022-04-28T05:43:03,42.805,6.029,0.01,-0.015,0.004,102.0,101.0,100.0,13.3,1505.2,331.7,-0.8,1.8,2470.889,13.28,0.018,146.3
2022-04-28T05:46:03,42.805,6.029,0.029,-0.014,0.006,102.0,102.0,100.0,13.4,1505.2,329.3,-0.8,1.8,2470.861,13.28,0.032,115.8
2022-04-28T05:49:03,42.805,6.029,0.023,0.0,0.022,102.0,103.0,99.0,13.4,1505.2,328.6,-0.8,1.8,2470.912,13.28,0.023,90.0
2022-04-28T05:52:03,42.805,6.029,0.029,0.0,0.031,103.0,100.0,101.0,13.4,1505.2,325.3,-0.7,1.8,2470.847,13.28,0.028,90.0
2022-04-28T05:55:03,42.805,6.029,0.017,-0.014,0.007,102.0,102.0,101.0,13.3,1505.2,322.4,-0.7,1.8,2470.88,13.28,0.022,129.5
2022-04-28T05:58:03,42.805,6.029,0.042,-0.03,-0.009,102.0,103.0,100.0,13.3,1505.2,325.5,-0.8,1.8,2470.902,13.28,0.051,125.5
2022-04-28T06:04:03,42.805,6.029,0.035,-0.015,0.007,101.0,102.0,100.0,13.4,1505.2,327.9,-0.7,1.8,2470.862,13.28,0.038,113.2
2022-04-28T06:07:03,42.805,6.029,0.041,-0.05,-0.015,102.0,102.0,99.0,13.4,1505.2,332.2,-0.8,1.8,2470.867,13.28,0.064,140.7
2022-04-28T06:10:03,42.805,6.029,0.033,-0.01,0.004,102.0,102.0,101.0,13.4,1505.2,323.1,-0.8,1.8,2470.847,13.28,0.034,106.9
2022-04-28T06:13:03,42.805,6.029,0.034,-0.004,0.012,101.0,102.0,101.0,13.3,1505.2,325.6,-0.8,1.8,2470.813,13.28,0.034,96.7
2022-04-28T06:16:03,42.805,6.029,0.025,-0.009,0.017,101.0,102.0,100.0,13.4,1505.2,329.7,-0.8,1.8,2470.85,13.28,0.026,109.8
2022-04-28T06:19:03,42.805,6.029,0.018,0.018,0.015,101.0,103.0,100.0,13.3,1505.2,323.4,-0.8,1.8,2470.867,13.28,0.025,45.0
2022-04-28T06:22:03,42.805,6.029,0.036,-0.014,0.003,100.0,103.0,104.0,13.4,1505.2,325.8,-0.7,1.8,2470.844,13.28,0.038,111.2
2022-04-28T06:25:03,42.805,6.029,0.019,-0.007,0.021,101.0,102.0,101.0,13.4,1505.2,327.0,-0.8,1.8,2470.857,13.28,0.02,110.2
2022-04-28T06:28:03,42.805,6.029,0.02,0.005,-0.003,101.0,102.0,100.0,13.4,1505.2,332.8,-0.7,1.8,2470.899,13.28,0.02,76.0
2022-04-28T06:31:03,42.805,6.029,0.014,-0.001,0.04,101.0,103.0,101.0,13.4,1505.2,324.9,-0.8,1.8,2470.875,13.28,0.014,94.1
2022-04-28T06:34:03,42.805,6.029,0.018,0.006,0.013,102.0,103.0,100.0,13.3,1505.2,324.8,-0.7,1.8,2470.877,13.28,0.018,71.6
2022-04-28T06:37:03,42.805,6.029,0.025,-0.018,0.006,103.0,102.0,101.0,13.4,1505.2,323.4,-0.8,1.8,2470.897,13.28,0.03,125.8
2022-04-28T06:40:03,42.805,6.029,0.013,-0.01,0.024,102.0,101.0,101.0,13.4,1505.2,330.9,-0.8,1.8,2470.838,13.28,0.016,127.6
2022-04-28T06:43:03,42.805,6.029,0.016,-0.011,-0.002,101.0,103.0,103.0,13.4,1505.2,324.8,-0.7,1.8,2470.832,13.28,0.019,124.5
2022-04-28T06:46:03,42.805,6.029,0.025,0.0,0.007,101.0,101.0,100.0,13.3,1505.2,325.6,-0.8,1.8,2470.847,13.28,0.025,90.0
2022-04-28T06:49:03,42.805,6.029,0.023,-0.016,-0.015,103.0,103.0,100.0,13.3,1505.2,331.5,-0.7,1.8,2470.864,13.28,0.028,124.8
2022-04-28T06:52:03,42.805,6.029,0.019,0.011,0.009,102.0,103.0,100.0,13.3,1505.2,321.5,-0.7,1.8,2470.851,13.28,0.021,59.9
2022-04-28T06:55:03,42.805,6.029,0.017,0.004,0.019,102.0,102.0,101.0,13.4,1505.2,329.8,-0.7,1.8,2470.85,13.28,0.017,76.8
2022-04-28T06:58:03,42.805,6.029,0.032,-0.01,0.023,101.0,103.0,100.0,13.4,1505.2,326.6,-0.8,1.8,2470.879,13.28,0.033,107.4
2022-04-28T07:04:03,42.805,6.029,0.027,0.003,0.043,102.0,103.0,100.0,13.4,1505.2,329.2,-0.8,1.8,2470.952,13.28,0.027,83.7
2022-04-28T07:07:03,42.805,6.029,0.015,-0.009,-0.016,102.0,102.0,100.0,13.4,1505.2,327.6,-0.7,1.8,2470.899,13.28,0.017,121.0
2022-04-28T07:10:03,42.805,6.029,0.022,0.0,0.016,102.0,103.0,101.0,13.4,1505.2,322.8,-0.7,1.8,2470.926,13.28,0.022,90.0
2022-04-28T07:13:03,42.805,6.029,0.019,-0.006,0.02,101.0,103.0,101.0,13.4,1505.2,333.2,-0.7,1.8,2470.909,13.28,0.019,107.5
2022-04-28T07:16:03,42.805,6.029,0.022,-0.009,0.022,102.0,102.0,100.0,13.4,1505.2,329.6,-0.7,1.8,2470.915,13.28,0.023,112.2
2022-04-28T07:19:03,42.805,6.029,0.019,0.0,0.012,101.0,103.0,100.0,13.4,1505.2,326.8,-0.8,1.8,2470.96,13.28,0.019,90.0
2022-04-28T07:22:03,42.805,6.029,0.027,0.001,0.012,101.0,103.0,101.0,13.4,1505.2,326.5,-0.8,1.8,2470.943,13.28,0.027,87.9
2022-04-28T07:25:03,42.805,6.029,0.05,-0.009,0.007,101.0,102.0,101.0,13.4,1505.2,325.0,-0.7,1.8,2470.94,13.28,0.05,100.2
2022-04-28T07:28:03,42.805,6.029,0.019,-0.007,0.034,102.0,102.0,101.0,13.3,1505.2,331.1,-0.7,1.8,2470.918,13.28,0.02,110.2
2022-04-28T07:31:03,42.805,6.029,0.036,-0.001,0.031,102.0,103.0,101.0,13.4,1505.2,326.0,-0.7,1.9,2470.812,13.28,0.036,91.6
2022-04-28T07:34:03,42.805,6.029,0.044,-0.015,0.004,101.0,102.0,100.0,13.4,1505.2,328.6,-0.8,1.8,2470.821,13.28,0.046,108.8
2022-04-28T07:37:03,42.805,6.029,0.003,0.0,0.001,102.0,103.0,100.0,13.4,1505.2,330.0,-0.8,1.8,2470.841,13.28,0.003,90.0
2022-04-28T07:40:03,42.805,6.029,0.041,-0.001,0.023,102.0,103.0,101.0,13.4,1505.2,328.8,-0.7,1.8,2470.828,13.28,0.041,91.4
2022-04-28T07:43:03,42.805,6.029,0.026,0.01,0.036,102.0,102.0,101.0,13.3,1505.2,329.2,-0.8,1.8,2470.838,13.28,0.027,69.0
2022-04-28T07:46:03,42.805,6.029,0.014,0.006,0.008,102.0,103.0,101.0,13.4,1505.2,326.2,-0.8,1.8,2470.829,13.28,0.015,66.8
2022-04-28T07:49:03,42.805,6.029,0.011,0.0,-0.007,101.0,102.0,100.0,13.4,1505.2,331.9,-0.8,1.8,2470.866,13.28,0.011,90.0
2022-04-28T07:52:03,42.805,6.029,0.016,-0.006,0.008,102.0,103.0,100.0,13.4,1505.2,325.4,-0.8,1.8,2470.835,13.28,0.017,110.6
2022-04-28T07:55:03,42.805,6.029,0.004,-0.003,0.017,102.0,102.0,100.0,13.4,1505.2,327.3,-0.8,1.8,2470.878,13.28,0.005,126.9
2022-04-28T07:58:03,42.805,6.029,0.033,-0.009,0.026,102.0,102.0,100.0,13.4,1505.2,325.1,-0.7,1.8,2470.869,13.28,0.034,105.3
2022-04-28T08:04:03,42.805,6.029,0.017,-0.014,0.024,101.0,104.0,101.0,13.4,1505.2,329.4,-0.8,1.8,2470.922,13.28,0.022,129.5
2022-04-28T08:07:03,42.805,6.029,0.01,0.0,0.003,102.0,102.0,100.0,13.4,1505.2,324.5,-0.8,1.8,2470.862,13.28,0.01,90.0
2022-04-28T08:10:03,42.805,6.029,0.018,0.0,0.031,103.0,102.0,102.0,13.4,1505.2,325.0,-0.8,1.8,2470.852,13.28,0.018,90.0
2022-04-28T08:13:03,42.805,6.029,0.019,-0.023,-0.004,102.0,103.0,100.0,13.4,1505.2,329.7,-0.8,1.8,2470.824,13.28,0.029,140.4
2022-04-28T08:16:03,42.805,6.029,0.016,0.014,0.019,101.0,103.0,100.0,13.3,1505.2,325.0,-0.7,1.8,2470.849,13.28,0.021,48.8
2022-04-28T08:19:03,42.805,6.029,0.011,0.02,0.029,102.0,102.0,101.0,13.3,1505.2,322.3,-0.8,1.8,2470.805,13.28,0.022,28.8
2022-04-28T08:22:03,42.805,6.029,0.02,-0.017,0.036,102.0,102.0,101.0,13.3,1505.2,325.6,-0.8,1.8,2470.799,13.28,0.026,130.4
2022-04-28T08:25:03,42.805,6.029,0.019,0.014,0.027,104.0,103.0,100.0,13.4,1505.2,332.3,-0.8,1.8,2470.829,13.28,0.023,53.6
2022-04-28T08:28:03,42.805,6.029,0.02,0.002,0.01,101.0,104.0,101.0,13.3,1505.2,329.0,-0.8,1.8,2470.821,13.28,0.02,84.3
2022-04-28T08:31:03,42.805,6.029,-0.011,0.027,0.045,102.0,102.0,101.0,13.4,1505.2,324.2,-0.8,1.8,2470.837,13.28,0.029,337.8
2022-04-28T08:34:03,42.805,6.029,0.023,-0.014,0.016,100.0,103.0,100.0,13.4,1505.2,328.4,-0.7,1.8,2470.843,13.28,0.026,121.3
2022-04-28T08:37:03,42.805,6.029,0.022,0.001,0.0,101.0,104.0,100.0,13.4,1505.2,322.8,-0.8,1.8,2470.831,13.28,0.022,87.4
2022-04-28T08:40:03,42.805,6.029,0.02,0.002,0.024,102.0,101.0,101.0,13.4,1505.2,327.2,-0.8,1.8,2470.853,13.28,0.02,84.3
2022-04-28T08:43:03,42.805,6.029,0.063,-0.017,0.05,102.0,103.0,100.0,13.4,1505.2,326.5,-0.7,1.8,2470.805,13.28,0.065,105.1
2022-04-28T08:46:03,42.805,6.029,0.024,-0.021,-0.019,103.0,101.0,100.0,13.4,1505.2,322.1,-0.8,1.9,2470.845,13.28,0.031,131.2
2022-04-28T08:49:03,42.805,6.029,0.022,-0.01,-0.011,101.0,104.0,100.0,13.4,1505.2,330.9,-0.7,1.8,2470.84,13.28,0.024,114.4
2022-04-28T08:52:03,42.805,6.029,0.047,0.002,0.017,101.0,103.0,100.0,13.4,1505.2,329.9,-0.8,1.8,2470.82,13.28,0.047,87.6
2022-04-28T08:55:03,42.805,6.029,0.025,-0.006,0.01,105.0,104.0,100.0,13.4,1505.2,331.9,-0.8,1.8,2470.811,13.28,0.025,103.5
2022-04-28T08:58:03,42.805,6.029,0.012,-0.004,0.002,103.0,103.0,101.0,13.4,1505.2,322.1,-0.8,1.8,2470.782,13.28,0.012,108.4
2022-04-28T09:04:03,42.805,6.029,0.033,-0.009,0.01,101.0,103.0,100.0,13.4,1505.2,332.4,-0.8,1.8,2470.811,13.28,0.034,105.3
2022-04-28T09:07:03,42.805,6.029,0.033,0.002,0.023,102.0,102.0,100.0,13.4,1505.2,322.6,-0.8,1.8,2470.74,13.28,0.033,86.5
2022-04-28T09:10:03,42.805,6.029,0.02,-0.021,0.004,101.0,103.0,100.0,13.4,1505.2,325.5,-0.8,1.8,2470.757,13.28,0.028,136.4
2022-04-28T09:13:03,42.805,6.029,0.03,-0.009,0.003,102.0,104.0,100.0,13.3,1505.2,328.6,-0.8,1.8,2470.777,13.28,0.031,106.7
2022-04-28T09:16:03,42.805,6.029,0.044,0.007,0.008,103.0,102.0,101.0,13.4,1505.2,331.0,-0.8,1.8,2470.752,13.28,0.044,81.0
2022-04-28T09:19:03,42.805,6.029,0.009,-0.001,0.02,102.0,103.0,100.0,13.4,1505.2,329.5,-0.8,1.8,2470.798,13.28,0.009,96.3
2022-04-28T09:22:03,42.805,6.029,0.014,-0.013,-0.019,102.0,102.0,101.0,13.4,1505.2,330.7,-0.7,1.8,2470.77,13.28,0.019,132.9
2022-04-28T09:25:03,42.805,6.029,0.039,-0.001,0.006,102.0,103.0,101.0,13.3,1505.2,331.6,-0.8,1.8,2470.792,13.28,0.039,91.5
2022-04-28T09:28:03,42.805,6.029,0.01,0.0,0.007,101.0,103.0,101.0,13.3,1505.2,328.0,-0.8,1.8,2470.753,13.28,0.01,90.0
2022-04-28T09:31:03,42.805,6.029,0.005,-0.013,0.017,101.0,104.0,100.0,13.4,1505.2,330.6,-0.8,1.8,2470.754,13.28,0.013,159.0
2022-04-28T09:34:03,42.805,6.029,0.016,0.009,0.026,102.0,103.0,101.0,13.4,1505.2,333.0,-0.8,1.8,2470.763,13.28,0.018,60.6
2022-04-28T09:37:03,42.805,6.029,0.033,0.006,0.017,102.0,101.0,100.0,13.4,1505.2,329.0,-0.7,1.8,2470.799,13.28,0.033,79.7
2022-04-28T09:40:03,42.805,6.029,0.004,0.003,-0.019,101.0,103.0,100.0,13.4,1505.2,332.1,-0.8,1.8,2470.79,13.28,0.005,53.1
2022-04-28T09:43:03,42.805,6.029,0.041,-0.019,0.007,102.0,105.0,101.0,13.4,1505.2,322.8,-0.8,1.8,2470.777,13.28,0.045,114.9
2022-04-28T09:46:03,42.805,6.029,0.04,0.008,0.018,102.0,104.0,101.0,13.3,1505.2,322.5,-0.7,1.8,2470.791,13.28,0.04,78.7
2022-04-28T09:49:03,42.805,6.029,0.042,-0.011,-0.016,103.0,103.0,100.0,13.3,1505.2,322.2,-0.8,1.8,2470.755,13.28,0.043,104.7
2022-04-28T09:52:03,42.805,6.029,0.042,0.014,0.015,102.0,103.0,101.0,13.3,1505.2,326.2,-0.7,1.8,2470.747,13.28,0.044,71.6
2022-04-28T09:55:03,42.805,6.029,0.011,0.001,0.011,102.0,104.0,100.0,13.4,1505.2,331.6,-0.8,1.8,2470.729,13.28,0.011,84.8
2022-04-28T09:58:03,42.805,6.029,0.024,-0.011,-0.022,102.0,103.0,100.0,13.3,1505.2,322.8,-0.8,1.8,2470.774,13.28,0.026,114.6
2022-04-28T10:04:03,42.805,6.029,0.029,-0.009,-0.011,102.0,102.0,100.0,13.3,1505.2,325.7,-0.8,1.9,2470.793,13.28,0.03,107.2